Location: Kearney
(40.6990°N, 99.0810°W)
Time: 01:48:11
(UTC-05:00)

Daily predictions for brighter satellites

Satellite Brightness Start Highest point End
(mag) Time Altitude Azimuth Time Altitude Azimuth Time Altitude Azimuth
Cosmos 1340 3.5 00:09:24 46° NNE 00:09:24 46° NNE 00:12:14 10° NNE
NOSS 3-2 (C) 3.8 00:11:29 44° ESE 00:11:29 44° ESE 00:17:31 10° NE
Cosmos 2221 3.4 00:07:39 10° N 00:11:18 39° ENE 00:11:18 39° ENE
Cosmos 1470 3.2 00:08:47 10° N 00:11:59 57° N 00:11:59 57° N
Cosmos 1805 4.4 00:11:20 10° NNW 00:14:51 35° W 00:14:51 35° W
ISS 0.1 00:15:54 10° NW 00:17:34 13° N 00:19:12 10° NNE
H-2A R/B 3.0 00:16:38 32° WSW 00:17:35 35° W 00:22:14 10° NNW
Meteor 1-16 Rocket 4.4 00:13:16 10° N 00:18:48 56° ENE 00:19:34 52° ESE
Cosmos 1850 Rocket 4.5 00:17:56 39° SW 00:19:38 56° WNW 00:24:46 10° N
Cosmos 1544 4.0 00:17:30 10° NNW 00:20:28 46° NW 00:20:28 46° NW
Cosmos 1655 Rocket 4.1 00:20:20 54° SE 00:21:18 60° E 00:27:27 10° NNE
Cosmos 1570 Rocket 4.5 00:16:45 10° NNW 00:21:54 49° WSW 00:22:33 46° SW
CZ-4C R/B 2.1 00:30:35 68° ESE 00:30:35 68° ESE 00:36:21 10° NE
COSMOS 2406 4.2 00:27:47 21° WSW 00:31:10 42° WNW 00:36:38 10° N
Cosmos 1607 4.4 00:29:44 22° SW 00:33:44 57° NW 00:39:52 10° NNE
Atlas Centaur 2 4.0 00:26:55 10° WSW 00:31:50 28° SW 00:31:50 28° SW
Cosmos 468 Rocket 4.2 00:31:52 10° NNW 00:37:04 58° ENE 00:37:21 57° E
Cosmos 2026 Rocket 3.8 00:37:00 67° S 00:37:52 84° E 00:43:58 10° N
Cosmos 2195 Rocket 4.4 00:37:43 62° SSW 00:38:52 85° W 00:45:10 10° N
Okean 3 Rocket 4.1 00:41:45 51° WNW 00:41:45 51° WNW 00:45:55 10° N
Cosmos 2228 Rocket 4.2 00:39:32 10° N 00:43:03 36° ENE 00:43:03 36° ENE
Cosmos 2082 Rocket 3.4 00:45:38 28° E 00:45:38 28° E 00:49:35 10° NE
Cosmos 1814 Rocket 4.2 00:40:31 10° NNW 00:45:46 61° ENE 00:46:01 60° E
Cosmos 1707 3.9 00:48:09 42° NW 00:48:09 42° NW 00:51:13 10° N
Cosmos 1627 Rocket 4.5 00:46:19 58° SW 00:47:28 73° W 00:53:36 10° N
Cosmos 1833 Rocket 4.2 00:50:36 23° E 00:50:36 23° E 00:54:07 10° NE
Terra 3.8 00:49:14 17° W 00:49:45 17° W 00:52:54 10° NW
Cosmos 1943 Rocket 3.9 00:46:08 10° NW 00:49:58 19° W 00:50:34 19° WSW
USA 234 4.5 00:53:51 25° WSW 00:53:51 25° WSW 00:58:59 10° WNW
NOSS 3-2 (A) 3.5 00:52:41 51° SW 00:54:22 78° NW 01:01:03 10° NNE
Helios 1A Rocket 4.4 00:56:58 10° NNE 00:59:26 31° NE 00:59:26 31° NE
Cosmos 1408 Rocket 4.0 01:02:54 60° NNW 01:02:54 60° NNW 01:06:45 10° N
Cosmos 1486 Rocket 4.0 01:02:59 75° ENE 01:02:59 75° ENE 01:07:52 10° NNE
ALOS 2 3.0 01:05:18 61° N 01:05:18 61° N 01:08:58 10° N
Lacrosse 5 3.7 01:00:46 10° NNW 01:05:07 28° NNE 01:08:18 15° E
Meteor 1-24 Rocket 4.0 01:11:55 57° WSW 01:12:46 63° WNW 01:18:38 10° N
Cosmos 1763 Rocket 3.7 01:09:39 10° NNW 01:14:55 60° ENE 01:15:03 59° ENE
CZ-4B R/B 3.2 01:18:11 33° NNW 01:18:11 33° NNW 01:20:22 10° NNW
Cosmos 1818 3.5 01:12:29 10° NW 01:17:44 78° W 01:17:44 78° W
CZ-2C R/B 3.5 01:15:26 10° NNE 01:20:21 39° E 01:20:21 39° E
Cosmos 1553 Rocket 4.1 01:20:00 10° NNW 01:26:17 66° W 01:27:02 61° SW
Cosmos 1743 Rocket 4.1 01:31:33 56° NNW 01:31:33 56° NNW 01:35:10 10° N
In-Cosmos 22 4.0 01:32:40 85° ESE 01:32:44 86° E 01:38:26 10° N
H-2A R/B 3.9 01:32:49 10° N 01:35:29 30° NW 01:35:29 30° NW
Cosmos 1500 Rocket 4.2 01:48:34 52° NNW 01:48:34 52° NNW 01:51:57 10° N
Cosmos 2369 4.1 01:43:40 10° NNW 01:48:43 50° W 01:48:43 50° W
Aureole 1 Rocket 4.2 01:45:03 10° N 01:49:45 50° ENE 01:50:44 45° E
Cosmos 2315 Rocket 4.0 01:44:25 10° N 01:50:44 71° E 01:51:39 62° SE
CENTAUR R/B 2.6 01:50:52 55° ESE 01:50:59 55° ESE 01:57:33 10° NE
Cosmos 1354 Rocket 4.0 01:51:04 73° WNW 01:51:04 73° WNW 01:56:24 10° NNE
Cosmos 2266 Rocket 4.0 01:50:26 65° SW 01:51:18 74° W 01:57:44 10° N
Cosmos 1867 4.2 01:52:05 45° W 01:53:01 50° NW 01:58:21 10° NNE
Meteor 1-21 Rocket 4.2 01:54:39 68° WSW 01:54:58 70° W 02:00:38 10° N
ISS -0.1 01:53:04 10° NNW 01:55:03 15° NNE 01:57:02 10° NE
Cosmos 841 Rocket 3.7 01:50:58 10° NNW 01:55:42 62° WNW 01:55:42 62° WNW
Cosmos 1503 Rocket 4.1 01:56:13 69° WNW 01:56:17 69° WNW 02:01:36 10° NNE
USA 32 4.3 01:57:11 10° N 02:02:23 57° E 02:02:36 57° E
Cosmos 1980 Rocket 2.7 02:01:52 10° NNW 02:07:24 54° ENE 02:08:46 44° ESE
Cosmos 2344 3.8 02:06:43 40° SW 02:09:49 71° NW 02:18:42 10° NNE
ASTEX 1 3.8 02:05:10 10° NNE 02:09:56 51° E 02:09:56 51° E
Cosmos 1300 4.1 02:13:04 10° N 02:15:57 35° NE 02:15:57 35° NE
Meteor 2-2 Rocket 4.5 02:11:29 10° NNW 02:17:04 54° W 02:17:13 54° W
Cosmos 783 Rocket 4.4 02:13:40 10° NNW 02:18:59 80° ENE 02:19:14 78° ESE
CZ-4C R/B 4.2 02:15:42 12° W 02:19:37 24° NW 02:24:30 10° NNE
Lacrosse 5 rocket 3.3 02:17:22 10° NNW 02:21:11 30° NE 02:25:10 10° E
CZ-2C R/B 3.1 02:21:10 76° S 02:21:38 88° WSW 02:27:24 10° NNW
Cosmos 1697 Rocket 2.7 02:21:21 10° NNW 02:26:56 65° WSW 02:26:56 65° WSW
Cosmos 2082 Rocket 3.1 02:27:28 35° W 02:28:40 39° WNW 02:33:59 10° N
Cosmos 1437 Rocket 4.2 02:25:59 10° NNW 02:28:19 31° NW 02:28:19 31° NW
Cosmos 1833 Rocket 3.3 02:32:16 42° W 02:33:16 46° WNW 02:38:42 10° NNE
Cosmos 2058 3.3 02:34:30 61° N 02:34:30 61° N 02:37:58 10° N
Cosmos 1726 3.3 02:31:34 10° N 02:34:22 40° NE 02:34:22 40° NE
ATLAS 5 CENTAUR R/B 3.7 02:37:19 18° ESE 02:37:19 18° ESE 02:40:38 10° ENE
Cosmos 1805 Rocket 3.7 02:39:27 68° NNW 02:39:27 68° NNW 02:43:27 10° N
SL-08 R/B 4.3 02:40:41 61° S 02:41:50 85° E 02:47:59 10° N
Cosmos 1455 4.4 02:40:50 10° NNE 02:43:37 19° ENE 02:44:26 18° E
Cosmos 1633 Rocket 3.1 02:46:01 73° ENE 02:46:01 73° ENE 02:50:13 10° N
Lacrosse 5 2.2 02:43:24 10° NW 02:47:25 51° W 02:47:25 51° W
Cosmos 2242 Rocket 3.6 02:45:57 10° N 02:50:21 70° E 02:50:21 70° E
Landsat 4 4.3 02:51:52 55° NNE 02:51:52 55° NNE 02:55:00 10° N
Cosmos 371 Rocket 3.4 02:46:56 10° NNW 02:51:48 70° ENE 02:52:28 60° ESE
Cosmos 2151 4.3 02:52:36 30° WNW 02:52:36 30° WNW 02:55:54 10° NNW
Cosmos 1707 Rocket 3.9 02:49:33 10° NNW 02:53:14 53° NW 02:53:14 53° NW
Cosmos 540 Rocket 3.8 02:49:37 10° NNW 02:54:19 51° W 02:54:19 51° W
Cosmos 1666 Rocket 3.7 02:56:44 63° NW 02:56:44 63° NW 03:00:43 10° N
Cosmos 1626 3.9 02:56:33 25° E 02:56:38 25° E 02:59:44 10° NE
Cosmos 2360 4.1 02:53:43 10° NNW 02:59:27 83° WSW 03:00:41 57° S
CZ-2C R/B 4.0 02:56:01 10° N 03:00:39 28° WNW 03:01:52 26° W
Cosmos 1470 Rocket 3.7 03:06:48 59° ESE 03:07:11 62° E 03:11:33 10° NNE
USA 215 3.4 03:03:06 10° NE 03:09:32 57° SE 03:11:25 43° S
Cosmos 1933 Rocket 3.6 03:11:10 63° SE 03:11:32 67° E 03:15:56 10° NNE
SL-16 R/B 2.4 03:06:23 10° NNW 03:12:03 68° ENE 03:15:18 26° SE
SL-14 R/B 4.1 03:18:51 38° WNW 03:18:51 38° WNW 03:21:58 10° N
ADEOS 4.5 03:15:05 10° NNE 03:20:00 40° E 03:22:03 29° SE
JB-3 4.3 03:18:54 10° N 03:22:48 66° WNW 03:22:48 66° WNW
Cosmos 2322 Rocket 2.1 03:17:13 10° NNW 03:22:53 89° ENE 03:25:26 34° SSE
AQUA 4.1 03:18:43 10° NNE 03:23:26 61° E 03:24:37 46° SSE
Sich 1 3.8 03:23:24 38° W 03:23:28 38° WNW 03:27:37 10° N
Cosmos 1869 3.9 03:22:50 10° N 03:26:45 53° E 03:27:40 42° SE
Cosmos 1386 Rocket 4.5 03:26:13 44° SW 03:28:11 67° W 03:34:18 10° N
Cosmos 1703 3.6 03:30:05 53° WNW 03:30:05 53° WNW 03:33:52 10° N
ISS -2.4 03:28:55 10° NW 03:32:05 49° NNE 03:35:16 10° ESE
Cosmos 1271 Rocket 2.5 03:29:39 10° NNW 03:33:22 78° WNW 03:33:22 78° WNW
USA 161 3.6 03:34:45 21° ENE 03:34:45 21° ENE 03:36:21 10° NNE
IRS-P3 Rocket 4.5 03:32:07 10° NNE 03:37:21 82° WNW 03:39:02 45° SSW
CZ-2D R/B 3.9 03:35:39 10° NE 03:39:56 25° E 03:44:01 11° SSE
Cosmos 968 Rocket 4.2 03:39:41 33° W 03:41:02 40° WNW 03:45:53 10° N
CENTAUR R/B 3.9 03:38:01 17° W 03:42:00 32° NW 03:48:13 10° NNE
ERS-2 2.5 03:39:56 10° N 03:43:32 49° WNW 03:43:39 49° W
Meteor 1-4 Rocket 2.8 03:39:52 10° NNW 03:43:29 56° W 03:43:29 56° W
Cosmos 1862 Rocket 3.6 03:42:57 10° NNW 03:47:23 62° W 03:48:14 50° SW
SL-16 R/B 3.6 03:43:08 10° SE 03:49:02 45° ENE 03:54:58 10° N
Cosmos 1980 Rocket 3.6 03:46:53 10° NW 03:50:30 20° W 03:50:30 20° W
Meteor 2-10 4.3 03:46:34 10° NNW 03:51:39 49° W 03:53:13 38° SW
Cosmos 2360 Rocket 2.8 03:46:38 10° NNW 03:52:11 56° ENE 03:57:43 10° SE
NPP 3.8 03:47:11 10° N 03:52:30 60° WNW 03:54:33 36° SW
Cosmos 1709 Rocket 4.0 03:49:55 34° SSW 03:52:47 70° W 03:59:03 10° N
Okean O Rocket 4.3 03:52:08 10° ENE 03:54:07 13° E 03:56:05 10° ESE
SL-08 R/B 3.6 03:57:21 39° SW 03:58:40 50° W 04:03:27 10° NNW
Lacrosse 5 rocket 1.8 03:56:25 10° WNW 04:00:36 44° SW 04:01:02 43° SW
Cosmos 1933 3.4 03:59:40 10° N 04:03:42 76° E 04:05:48 27° SSE
ATLAS CENTAUR R/B 3.2 04:03:25 10° NNW 04:07:47 36° NE 04:11:48 10° ESE
Cosmos 2219 3.8 04:07:10 21° S 04:10:53 52° ESE 04:16:28 10° NNE
USA 229 DEB 4.1 04:07:20 23° S 04:11:45 57° ESE 04:18:34 10° NE
USA 229 4.1 04:07:26 22° S 04:11:51 57° ESE 04:18:40 10° NE
ATLAS 2A CENTAUR R/B 4.2 04:07:37 21° S 04:12:27 34° SE 04:42:08 10° E
Cosmos 2322 3.8 04:06:45 10° NNW 04:12:31 81° ENE 04:18:15 10° SSE
Cosmos 1869 Rocket 3.6 04:10:27 28° S 04:12:43 78° E 04:17:10 10° N
GPS 2-05 Rocket1 3.7 04:15:08 31° SSE 04:15:08 31° SSE 04:17:41 10° ESE
Cosmos 2298 Rocket 4.3 04:11:20 23° S 04:14:38 64° ESE 04:19:56 10° NNE
Cosmos 2221 Rocket 3.5 04:10:12 10° N 04:14:44 85° W 04:17:43 21° S
Cosmos 923 Rocket 4.4 04:11:13 10° NNW 04:16:10 43° WSW 04:18:26 27° SSW
H-2A R/B 3.3 04:13:41 26° SW 04:16:49 47° S 04:41:59 10° ESE
IRS-1C 4.4 04:11:51 10° N 04:17:03 53° WNW 04:19:46 27° SW
Spot 4 Rocket 4.0 04:13:19 10° N 04:18:27 70° WNW 04:21:20 26° SSW
Cosmos 1455 3.4 04:16:11 10° NW 04:19:20 25° W 04:19:26 25° W
BREEZE-M DEB (TANK) 4.5 04:11:22 10° WNW 04:21:04 51° N 04:24:34 10° ENE
ATLAS 5 CENTAUR R/B 2.2 04:18:52 27° WSW 04:21:23 57° NW 04:26:35 10° NNE
Cosmos 1680 Rocket 3.8 04:19:39 10° NNW 04:24:38 47° WSW 04:27:53 20° SSW
BREEZE-M TANK 3.2 04:20:44 10° WNW 04:24:45 37° N 04:27:06 10° ENE
Resurs 1-4 Rocket 2.4 04:20:46 10° NNE 04:26:05 68° ESE 04:30:30 15° S
Cosmos 1346 4.1 04:29:11 29° W 04:29:37 31° WNW 04:32:23 10° NNW
Cosmos 1626 3.8 04:31:16 18° W 04:32:01 19° WNW 04:34:45 10° NNW
Cosmos 2292 Rocket 4.4 04:37:37 19° W 04:38:24 21° WNW 04:41:16 10° NNW
Cosmos 304 Rocket 4.4 04:36:49 10° NW 04:41:11 35° WSW 04:44:07 18° SSW
Cosmos 1892 4.1 04:38:25 10° SSE 04:42:01 37° E 04:45:37 10° NNE
ARIANE 5 R/B 2.6 04:37:10 10° N 04:42:11 61° WNW 04:45:50 18° SSW
Cosmos 1703 Rocket 4.1 04:38:41 10° NNW 04:42:43 38° W 04:45:11 20° SSW
CRYOSAT 2 4.4 04:38:31 10° N 04:43:21 65° W 04:47:13 16° SSW
Cosmos 1733 Rocket 4.1 04:39:45 10° SSE 04:43:51 43° E 04:48:00 10° NNE
COSMOS 2428 2.9 04:39:15 10° NNW 04:44:56 74° ENE 04:50:36 10° SSE
Coronas F rocket 4.3 04:45:18 10° ESE 04:46:47 14° E 04:48:17 10° NE
IRS-1D 3.7 04:43:10 10° N 04:48:27 61° WNW 04:52:39 16° SSW
OAO 3 Rocket 3.9 04:46:01 19° WSW 04:48:37 32° SSW 04:52:47 10° SE
USA 215 4.0 04:46:15 10° NE 04:52:25 46° NNW 04:58:35 10° WSW
Cosmos 1898 Rocket 3.5 04:49:30 17° SSW 04:53:33 69° WNW 04:58:44 10° NNE
SL-16 R/B 3.7 04:52:10 10° WNW 04:55:30 16° W 04:57:05 14° WSW
BREEZE-M DEB (TANK) 3.5 04:47:55 15° SW 04:57:19 71° SSE 05:00:52 10° ENE
CZ-2C R/B 4.0 04:53:05 10° SSE 04:57:34 73° ENE 05:02:08 10° N
Cosmos 1937 Rocket 3.5 04:53:34 13° SSW 04:58:21 87° WNW 05:03:41 10° NNE
UNKNOWN OBJECT B 2.7 04:54:43 10° N 04:58:34 73° WNW 05:02:04 12° SSW
Cosmos 389 Rocket 2.7 04:55:03 10° N 04:58:46 79° ENE 05:02:27 10° SSE
Cosmos 2237 Rocket 4.2 04:54:16 10° N 04:59:23 33° ENE 05:04:29 10° ESE
Cosmos 292 Rocket 3.8 04:55:02 10° NNW 04:59:52 86° ENE 05:04:39 10° SSE
IRS-1C Rocket 4.2 04:55:29 10° NNE 05:00:48 78° ESE 05:06:04 10° S
Okean 1-7 3.6 04:57:44 10° NNW 05:01:49 38° W 05:05:40 11° SSW
UNK 4.1 04:58:08 10° S 05:02:30 45° W 05:06:54 10° NNW
AVUM R/B 3.6 05:03:06 13° S 05:04:43 32° ESE 05:06:41 10° NE
Nadezhda 3 Rocket 4.0 04:59:09 10° N 05:05:20 89° ENE 05:11:30 10° S
Cosmos 2322 Rocket 4.0 05:04:24 10° WNW 05:06:02 11° W 05:07:11 11° WSW
Cosmos 2237 4.2 05:01:36 10° NNW 05:07:19 71° WSW 05:12:59 10° SSE
SME Rocket 3.7 05:01:09 10° S 05:07:45 75° WSW 05:12:16 10° NNW
ISS -1.9 05:05:58 10° W 05:08:18 18° SW 05:10:35 10° S
Cosmos 2154 Rocket 4.1 05:03:22 10° S 05:09:42 82° W 05:16:06 10° N
SL-24 DEB 4.3 05:07:40 10° N 05:12:17 67° W 05:16:51 10° SSW
Cosmos 2219 Rocket 2.8 05:07:50 10° NNW 05:13:23 62° ENE 05:18:54 10° SE
Meteor 2-3 Rocket 4.0 05:12:38 10° SSW 05:18:17 54° WNW 05:23:59 10° N
CZ-2D R/B 2.7 05:15:14 10° N 05:20:07 40° WNW 05:25:02 10° SW
Meteor 2-6 Rocket 4.5 05:18:57 10° N 05:24:25 75° E 05:29:59 10° SSE
Cosmos 1674 Rocket 3.5 05:22:40 10° N 05:27:00 81° W 05:31:20 10° S
Okean O Rocket 1.8 05:26:30 10° N 05:30:51 57° WNW 05:35:09 10° SSW
SL-16 R/B 3.4 05:27:29 10° SSW 05:32:48 29° W 05:38:09 10° NW
Meteor 2-10 Rocket 3.5 05:30:06 10° NNW 05:35:06 62° W 05:40:15 10° S
PSLV R/B 4.2 05:31:24 10° N 05:35:14 48° WNW 05:39:08 10° SSW
Cosmos 2360 Rocket 3.5 05:31:45 10° NW 05:35:41 20° W 05:39:37 10° SW
NOSS 3-1 (C) 3.7 05:30:00 10° SSW 05:35:47 72° ESE 05:42:14 10° NE
Cosmos 2227 Rocket 2.5 05:34:13 10° SSW 05:39:49 73° ESE 05:45:28 10° NNE
GP-B 3.1 05:36:56 10° N 05:41:24 84° W 05:45:49 10° S
